Regional Weather Roundup
Issued by NWS

Home | Current Version | Previous Version | Graphics & Text | Print | Product List | Glossary On
Versions: 1 2 3 4 5 6 7 8 9 10 11 12 13 14 15 16 17 18 19 20 21 22 23 24 25 26 27 28 29 30 31 32 33 34 35 36 37 38 39 40 41 42 43 44 45 46 47 48 49 50
000
ASUS43 KMKX 240400
RWRWI

WISCONSIN REGIONAL WEATHER ROUNDUP
NATIONAL WEATHER SERVICE MILWAUKEE/SULLIVAN WI
1100 PM CDT SUN JUL 23 2017

NOTE: "FAIR" INDICATES FEW OR NO CLOUDS BELOW 12,000 FEET WITH NO
SIGNIFICANT WEATHER AND/OR OBSTRUCTIONS TO VISIBILITY.

WIZ001-002-006>008-014>016-023>028-240500-
NORTHWEST WISCONSIN

CITY           SKY/WX    TMP DP  RH WIND       PRES   REMARKS
SUPERIOR ARPT  NOT AVBL
ASHLAND        FOG       48  48 100 CALM      30.05R VSB 1/4
HAYWARD        CLOUDY    59  55  87 NE3       30.04S
SIREN          MOCLDY    61  57  88 CALM      30.04R
CUMBERLAND     CLOUDY    61  54  77 NE5       30.03S
RICE LAKE      CLOUDY    63  56  78 N7        30.04S
CHETEK         PTCLDY    63  57  81 N8        30.02S
LADYSMITH      PTCLDY    58  56  92 N5        30.04R
EAU CLAIRE     NOT AVBL
MENOMONIE      CLOUDY    65  57  77 N6        30.01R
NEW RICHMOND   CLEAR     61  55  82 NE3       30.02S
OSCEOLA        CLEAR     62  57  84 CALM      30.05R
$$

WIZ003>005-009-010-017-018-240500-
NORTH CENTRAL WISCONSIN

CITY           SKY/WX    TMP DP  RH WIND       PRES   REMARKS
MANITOWISH WTR CLEAR     52  52 100 CALM      30.04R FOG
ARBOR VITAE    CLEAR     57  55  95 CALM      30.03R
WOODRUFF       CLEAR     57  55  95 CALM      30.03R
RHINELANDER    CLEAR     55  55 100 CALM      30.02S
EAGLE RIVER    PTCLDY    52  52  99 NE6       30.03R
LAND O LAKES   CLEAR     53  52  97 CALM      30.05R FOG
PHILLIPS       PTCLDY    58  56  92 NE3       30.02S
TOMAHAWK         N/A     57  53  86 CALM      30.02S
MEDFORD        CLOUDY    60  54  78 NE7       30.01R
MERRILL        NOT AVBL
$$

WIZ029-030-035-036-043>047-240500-
CENTRAL WISCONSIN

CITY           SKY/WX    TMP DP  RH WIND       PRES   REMARKS
WAUSAU         CLEAR     62  55  77 N5        29.98R
MOSINEE        CLEAR     61  54  77 NE9       29.99S
MARSHFIELD     CLEAR     62  53  72 NE8       29.98R
STEVENS POINT  CLEAR     60  54  79 NE8       29.98R
WAUPACA        CLEAR     64  55  71 N7        29.96S
WAUTOMA        CLEAR     64  56  75 NE8       29.96R
WISC RAPIDS    CLEAR     65  56  72 NE8       29.98R
CAMP DOUGLAS   NOT AVBL
$$

WIZ011>013-019>022-031-037>040-048>050-240500-
NORTHEAST WISCONSIN

CITY           SKY/WX    TMP DP  RH WIND       PRES   REMARKS
ANTIGO         CLEAR     55  53  93 N5        30.00S
SHAWANO        PTCLDY    64  56  76 NE12G17   29.96R
OCONTO         CLOUDY    63  55  77 N7        29.94S
STURGEON BAY     N/A     63  58  83 N16       29.94R
GREEN BAY      CLOUDY    63  58  83 N10       29.94R
MANITOWOC      NOT AVBL
APPLETON       MOCLDY    63  52  67 N14       29.94R
CLINTONVILLE   CLEAR     61  54  77 N7        29.96R
OSHKOSH        CLOUDY    65  56  72 N17       29.93S
$$

WIZ032>034-041-042-053>061-240500-
SOUTHWEST WISCONSIN

CITY           SKY/WX    TMP DP  RH WIND       PRES   REMARKS
LA CROSSE      CLEAR     68  61  78 N9        29.96R
SPARTA         CLEAR     64  58  81 CALM      29.97R
VIROQUA        CLEAR     64  62  93 CALM      29.96R
BOSCOBEL       CLEAR     67  61  81 CALM      29.94R
PRAIRIE DU CHI CLEAR     68  58  70 N3        29.93R
PLATTEVILLE    CLEAR     67  65  92 NW5       29.93R
$$

WIZ056-057-062-063-064-067-068-240500-
SOUTH CENTRAL WISCONSIN

CITY           SKY/WX    TMP DP  RH WIND       PRES   REMARKS
REEDSBURG      MOCLDY    67  62  82 N10       29.92S
BARABOO/DELLS  CLEAR     67  59  73 N5        29.92S
LONE ROCK      NOT AVBL
MINERAL POINT  CLEAR     68  64  88 NW5       29.93R
MADISON        PTCLDY    69  64  84 NE13      29.90R
MIDDLETON      CLOUDY    70  62  74 N6        29.91R
WATERTOWN      CLOUDY    67  64  89 NE8       29.90R
MONROE         CLEAR     68  61  77 NW6       29.90R
JANESVILLE     CLEAR     68  64  88 NW6       29.87S
$$

WIZ051-052-058>065-066-070>072-240500-
SOUTHEAST WISCONSIN

CITY           SKY/WX    TMP DP  RH WIND       PRES   REMARKS
MILWAUKEE      CLOUDY    68  63  84 NE17G24   29.90R
WAUKESHA       CLOUDY    64  61  88 NE9       29.91
MILWAUKEE/TIMM CLOUDY    66  59  77 NE12G20   29.91R
RACINE         CLOUDY    68  64  87 N15G21    29.91R
KENOSHA        CLOUDY    68  62  81 NE12      29.90R
FOND DU LAC    CLOUDY    66  56  70 NE18      29.93S
SHEBOYGAN      CLOUDY    64  59  83 N8        29.92R
WEST BEND      CLOUDY    64  63  94 NE10G17   29.91S
JUNEAU         CLOUDY    66  61  83 N8G18     29.92R
$$

LSZ147-162-240500-
LAKE SUPERIOR

STATION/POSITION TIME  TEMP    WIND        PRES    WAVE
                       AIR SEA DIR/SP/G            HT/PER
                 (UTC) (F)     (DEG/KT/KT) (MB)    (FT/S)
W MID LAKE BUOY  0250   50 48  300/  6/  6 1016.9R   1/ 4
DEVILS ISLAND    0300   56     330/  4/  4 1017.4R
SAXON HARBOR     0340   58     180/  3/  4 1016.9R
$$

LMZ867-665-643>646-240500-
LAKE MICHIGAN

STATION/POSITION TIME  TEMP    WIND        PRES    WAVE
                       AIR SEA DIR/SP/G            HT/PER
                 (UTC) (F)     (DEG/KT/KT) (MB)    (FT/S)
CHAMBERS ISLAND  0340   64     350/ 18/ 22 1013.2S
S GREEN BAY BUOY 0330   65 72   10/ 17/ 21 1013.5S
N MID LAKE BUOY  0250   62 66   50/ 19/ 23 1013.2R   4/ 5
NORTHPORT PIER   0340   63      30/ 15/ 17 1013.9S
KEWAUNEE LAKESHO 0330   64     360/  6/ 10 1012.3F
SHEBOYGAN LAKESH 0300   66      10/ 27/ 29 1011.8R
PORT WASHINGTON  0330   67      20/  7/ 11 1013.2R
ATWATER BUOY     0209   69 69   40/ 19/ 23 1011.7R
MILWAUKEE LAKESH 0340   67      30/ 21/ 23   N/A
S MID LAKE BUOY  0250   70 71   10/ 19/ 23 1010.2R   2/ 3
KENOSHA   LAKESH 0300   70      30/ 21/ 24 1011.2
$$

TC  - TEMPERATURE IN CELSIUS
VSB - VISIBILITY IN STATUTE MILES
WCI - WIND CHILL INDEX
HX  - HEAT INDEX





USA.gov is the U.S. government's official web portal to all federal, state and local government web resources and services.